Vorticity
12 12 13 13 14 14 18 12 5 16 3 7 8 -1 -26 8 9 11 5 22 -14 13 -9 9 19 8 -8 -1 1 14 23 13 -10 -10 11 17 18 9 16 -34 18 12 -9 -1
9 10 12 12 15 19 24 8 8 20 14 15 -1 14 9 37 -13 32 5 10 31 -20 22 12 35 24 -8 30 -24 -2 -22 15 12 16 28 40 28 19 7 2 -21 4 -7 16
9 10 10 10 13 20 17 10 4 8 -4 6 15 -6 17 19 -18 24 -5 22 -27 32 -5 1 -4 -18 9 -8 14 15 13 3 -6 -35 -27 4 11 22 19 26 -3 27 8 15
12 13 11 12 13 20 16 8 -2 10 -30 -17 -9 1 -8 3 18 -5 27 2 -16 30 23 15 8 18 0 21 26 8 4 19 9 19 16 24 15 17 33 32 20 9 20 10
10 9 13 12 13 20 6 6 10 -3 -2 7 17 13 13 18 9 -5 12 -1 36 -37 12 -3 15 -14 12 -5 3 18 24 13 15 18 24 22 -11 27 4 12 12 12 12 -2
10 10 11 11 11 14 15 14 12 23 -1 0 -8 27 -4 -5 -7 13 9 16 5 20 14 4 33 11 10 4 6 4 6 6 20 26 25 22 -7 8 21 2 17 16 10 3
8 9 9 10 11 13 13 17 21 -12 7 29 22 2 20 26 19 -1 6 4 34 15 19 28 22 19 8 12 15 17 8 18 12 18 16 10 19 8 4 7 6 3 2 0
10 11 12 15 15 15 15 14 17 20 20 19 -12 13 34 7 6 13 11 21 16 15 5 10 36 38 40 26 28 32 43 31 2 27 11 14 9 -3 11 14 7 -4 -5 -4
24 25 25 26 24 22 21 19 17 18 18 17 11 8 12 20 35 28 37 34 25 24 27 31 14 10 14 3 -1 -5 2 28 19 1 11 14 13 11 16 -4 16 14 -5 -5
26 25 27 27 30 30 27 25 26 26 33 7 18 33 30 31 27 22 22 22 22 21 26 13 10 3 17 5 14 -4 33 -1 12 21 15 15 -14 1 16 21 -2 -25 4 9
22 20 22 24 24 22 23 27 32 24 35 32 32 24 19 17 21 20 25 13 17 14 16 12 11 13 15 -8 28 -7 23 13 8 10 17 3 -17 15 25 -5 16 12 9 5
22 21 22 21 22 21 18 28 24 27 11 8 17 19 15 19 18 17 20 19 26 22 9 22 51 40 29 17 -4 22 -14 25 12 17 1 -1 3 -4 20 -5 7 9 7 11
20 19 25 22 21 20 9 9 2 4 -9 2 2 8 13 12 15 15 11 16 18 10 1 7 12 14 28 14 5 24 -16 23 12 26 5 10 16 17 1 10 9 10 11 11
14 12 10 21 18 15 28 27 39 46 19 -10 10 14 11 12 14 11 15 17 25 28 32 25 20 14 16 5 8 6 16 9 17 -4 7 33 -10 10 8 12 11 12 13 12
11 14 11 11 10 13 23 19 40 49 67 -5 1 8 0 3 10 19 19 19 23 23 25 13 -5 -10 -16 0 7 -3 7 7 13 -1 11 11 12 12 9 10 10 11 12 14
15 12 17 12 6 2 3 -7 -13 0 20 10 7 -5 -5 20 3 14 8 24 20 15 15 -4 -11 27 28 4 -2 9 9 8 8 8 10 11 10 13 8 10 10 11 13 13
8 12 17 15 14 17 15 14 20 25 13 -3 -19 -11 -1 9 1 2 0 2 1 3 12 8 9 22 -12 -6 10 13 12 11 8 7 8 13 11 12 12 11 10 9 9 10
5 6 8 11 9 13 19 22 11 9 10 0 14 -4 -1 -1 -1 3 1 -7 -1 -4 -1 -11 23 5 16 -20 12 10 11 13 11 10 9 9 12 12 12 14 12 14 12 10
4 3 3 3 -2 -8 -3 3 6 16 13 12 22 26 6 15 16 5 -2 9 -5 -8 8 3 -16 -2 4 11 9 10 9 9 12 13 11 11 11 12 12 12 14 13 15 14
14 7 4 15 21 7 1 11 4 -17 -6 7 17 12 4 7 15 18 21 6 7 6 -3 20 -15 -20 12 9 9 9 10 9 8 8 9 10 11 9 11 12 12 13 14 14
0 7 -3 10 0 -11 3 30 6 6 2 -10 14 15 12 10 12 0 18 12 11 6 -22 19 -2 -34 12 13 10 9 9 9 9 9 9 8 8 9 11 13 13 13 13 14
-6 -10 -21 38 3 15 7 13 1 11 -4 0 10 7 15 14 20 17 5 13 10 12 8 13 13 -17 12 10 12 10 10 10 10 9 10 10 10 9 10 12 13 15 15 13
22 40 16 16 -13 19 -4 2 -1 11 7 25 8 -2 11 2 23 10 18 3 15 13 8 4 -37 12 12 10 11 13 10 10 10 11 10 11 12 10 8 11 12 14 15 13
2 -1 7 15 20 -7 7 7 23 12 17 14 22 23 -7 30 5 15 22 -6 33 16 14 -27 11 13 10 10 10 11 12 11 11 10 10 10 12 12 10 10 10 12 15 14
14 9 9 13 10 13 11 12 22 11 23 13 24 21 1 7 14 14 6 13 8 -2 -32 16 11 10 12 10 9 10 11 11 11 10 10 10 11 11 13 10 11 11 14 13
14 32 18 12 12 11 6 5 13 29 2 9 6 22 4 7 10 12 6 4 15 -29 16 15 12 11 11 10 10 9 9 10 12 11 10 9 10 10 12 12 11 11 12 13
40 6 6 5 8 9 15 15 13 12 16 32 12 7 21 20 -9 27 -8 -14 11 8 8 10 14 13 12 11 10 10 9 9 10 12 11 10 10 9 10 13 14 11 12 12
Height
3054 3050 3047 3043 3039 3035 3031 3029 3025 3020 3021 3023 3016 3013 3012 3013 3010 3012 3010 3008 3006 3004 3002 2999 3000 2996 2997 2995 2994 2990 2988 2982 2976 2975 2973 2972 2971 2969 2971 2971 2968 2965 2961 2966
3046 3042 3039 3035 3032 3028 3025 3019 3015 3014 3014 3009 3007 3004 3002 3002 3003 3002 3001 3000 2998 2998 2997 2995 2988 2988 2989 2987 2987 2984 2982 2977 2973 2969 2969 2967 2966 2964 2964 2963 2963 2958 2958 2963
3039 3034 3031 3027 3024 3021 3021 3017 3009 3006 3003 2999 2998 2997 2993 2993 2992 2993 2993 2991 2991 2990 2987 2986 2981 2979 2980 2980 2979 2979 2977 2971 2972 2969 2967 2964 2961 2959 2957 2958 2958 2954 2955 2957
3030 3026 3022 3018 3016 3014 3013 3007 3000 2998 2993 2991 2991 2989 2984 2984 2983 2983 2983 2980 2981 2980 2978 2975 2971 2971 2971 2970 2970 2970 2970 2963 2963 2963 2959 2958 2955 2953 2951 2951 2950 2952 2955 2955
3023 3018 3014 3012 3007 3005 3004 3000 2996 2990 2984 2983 2982 2977 2974 2973 2975 2976 2973 2972 2971 2971 2969 2969 2965 2962 2962 2961 2959 2961 2960 2956 2954 2954 2951 2950 2949 2951 2951 2949 2950 2951 2953 2954
3015 3011 3007 3002 2999 2995 2990 2988 2985 2982 2974 2973 2972 2968 2962 2963 2965 2962 2962 2960 2961 2960 2959 2957 2955 2951 2951 2951 2951 2951 2952 2949 2948 2945 2945 2944 2948 2952 2953 2953 2953 2954 2954 2957
3007 3002 2998 2992 2989 2985 2980 2978 2976 2971 2964 2964 2959 2955 2955 2953 2953 2951 2950 2949 2950 2949 2947 2945 2943 2941 2942 2941 2940 2941 2942 2942 2942 2939 2943 2945 2958 2956 2956 2955 2955 2955 2955 2956
2996 2991 2985 2980 2975 2972 2968 2965 2964 2961 2956 2953 2951 2947 2946 2944 2942 2943 2940 2940 2940 2940 2940 2939 2937 2935 2936 2935 2936 2935 2936 2937 2938 2936 2942 2955 2956 2957 2957 2955 2956 2954 2953 2952
2984 2978 2970 2966 2962 2959 2956 2954 2953 2952 2951 2944 2941 2939 2936 2935 2934 2934 2932 2932 2931 2932 2932 2932 2932 2932 2934 2936 2937 2937 2937 2936 2937 2937 2942 2952 2958 2956 2954 2954 2953 2951 2951 2949
2975 2969 2962 2957 2953 2950 2948 2945 2944 2944 2944 2940 2939 2937 2935 2935 2932 2930 2930 2928 2929 2928 2928 2930 2931 2933 2936 2939 2940 2941 2937 2936 2941 2943 2945 2953 2954 2954 2953 2954 2957 2948 2946 2943
2971 2965 2960 2954 2950 2947 2944 2941 2939 2940 2938 2939 2938 2937 2937 2935 2933 2930 2930 2930 2929 2928 2928 2931 2933 2935 2941 2945 2948 2949 2946 2947 2950 2950 2949 2954 2953 2951 2953 2952 2947 2944 2942 2938
2973 2966 2961 2955 2951 2948 2945 2943 2941 2941 2941 2942 2944 2943 2942 2940 2937 2936 2933 2933 2930 2930 2931 2933 2936 2939 2945 2948 2951 2952 2953 2955 2955 2955 2953 2951 2949 2948 2945 2943 2940 2937 2934 2932
2977 2970 2964 2960 2956 2953 2951 2948 2949 2946 2944 2950 2951 2948 2948 2946 2944 2941 2940 2937 2935 2935 2935 2936 2939 2944 2949 2950 2954 2954 2955 2955 2955 2953 2952 2950 2948 2946 2943 2939 2936 2932 2928 2923
2983 2977 2972 2968 2964 2961 2959 2959 2955 2954 2953 2950 2958 2958 2953 2952 2951 2948 2945 2942 2941 2940 2940 2940 2943 2946 2954 2954 2958 2956 2956 2955 2954 2952 2950 2948 2946 2942 2938 2936 2931 2927 2922 2917
2989 2985 2981 2977 2973 2971 2970 2968 2965 2962 2962 2958 2962 2964 2963 2962 2960 2956 2953 2952 2951 2949 2946 2947 2948 2953 2956 2957 2956 2955 2955 2953 2952 2950 2947 2944 2942 2938 2933 2929 2924 2920 2914 2910
2996 2993 2989 2986 2983 2981 2978 2976 2976 2975 2973 2967 2965 2972 2972 2972 2970 2968 2964 2962 2959 2956 2952 2952 2956 2958 2960 2961 2960 2959 2956 2954 2951 2948 2944 2940 2936 2931 2926 2922 2918 2913 2907 2901
3005 3002 2998 2996 2992 2991 2986 2983 2982 2980 2979 2975 2976 2979 2979 2978 2977 2974 2971 2970 2965 2963 2959 2961 2962 2962 2961 2960 2960 2959 2956 2952 2948 2944 2940 2937 2932 2927 2923 2916 2912 2907 2902 2895
3014 3011 3008 3005 3003 2998 2995 2992 2989 2988 2985 2983 2984 2986 2985 2983 2982 2980 2977 2975 2971 2970 2967 2967 2967 2964 2964 2965 2963 2958 2954 2951 2946 2941 2937 2933 2929 2924 2919 2913 2907 2903 2897 2891
3022 3020 3017 3015 3014 3009 3005 3001 2999 2996 2996 2990 2992 2989 2989 2988 2985 2983 2982 2979 2976 2975 2973 2972 2972 2969 2970 2967 2962 2958 2953 2949 2945 2941 2935 2930 2924 2920 2914 2908 2902 2895 2890 2884
3027 3026 3024 3020 3017 3013 3012 3010 3006 3003 3000 2997 2996 2995 2993 2992 2988 2985 2983 2981 2980 2979 2978 2974 2973 2972 2970 2965 2960 2955 2950 2945 2940 2936 2931 2926 2921 2914 2909 2902 2896 2889 2883 2876
3031 3028 3027 3025 3023 3019 3015 3013 3011 3008 3006 3004 3002 2999 2996 2994 2991 2988 2986 2984 2982 2981 2982 2978 2976 2972 2969 2963 2958 2953 2948 2943 2938 2933 2928 2922 2916 2909 2904 2898 2892 2884 2877 2870
3033 3030 3030 3028 3027 3025 3023 3018 3017 3014 3013 3010 3006 3002 2998 2995 2992 2990 2989 2987 2986 2984 2982 2980 2976 2974 2968 2962 2958 2952 2947 2942 2937 2931 2926 2920 2914 2908 2902 2895 2888 2881 2873 2865
3034 3030 3031 3034 3034 3033 3030 3027 3024 3021 3017 3012 3008 3005 3002 2997 2994 2992 2991 2990 2988 2986 2983 2982 2979 2972 2967 2962 2956 2952 2945 2940 2935 2930 2924 2918 2912 2905 2897 2890 2883 2875 2868 2859
3036 3035 3040 3042 3042 3042 3038 3033 3027 3024 3018 3014 3010 3007 3005 3002 2999 2995 2994 2993 2989 2987 2984 2981 2976 2971 2966 2960 2954 2949 2944 2939 2933 2927 2921 2915 2909 2902 2894 2887 2879 2872 2864 2857
3038 3045 3048 3050 3048 3045 3041 3036 3030 3026 3022 3017 3012 3009 3008 3005 3002 3001 2999 2996 2993 2990 2987 2981 2975 2969 2964 2958 2953 2947 2942 2936 2931 2924 2918 2912 2906 2899 2893 2885 2877 2869 2861 2854
3046 3051 3055 3054 3051 3048 3044 3040 3035 3030 3026 3022 3016 3013 3010 3009 3008 3006 3002 3000 2995 2990 2984 2978 2972 2967 2961 2956 2950 2945 2939 2933 2927 2921 2915 2909 2903 2896 2890 2883 2875 2868 2860 2851
3055 3057 3057 3056 3054 3051 3047 3043 3038 3034 3029 3023 3020 3020 3017 3015 3012 3008 3004 2999 2994 2987 2981 2977 2971 2964 2958 2953 2947 2942 2936 2931 2925 2919 2913 2907 2900 2894 2887 2881 2875 2866 2858 2849